GFSSW_850_spd_159.txt.gz
Wind_Speed
23 23 24 24 24 23 24 23 22 20 18 17 17 18 19 17 19 22 21 8 6 11 16 15 13 7 10 9 13 9 2 6 6 7 3 5 4 2 4 9 6 28 18 20 30
25 24 24 25 25 25 24 25 22 20 18 17 17 16 16 17 23 25 4 8 7 7 12 16 16 5 4 9 11 5 4 7 6 5 2 5 4 7 6 0 3 6 13 30 40
26 26 26 26 27 25 24 23 22 20 19 17 16 15 13 18 22 6 9 7 4 2 6 12 12 1 2 4 7 5 5 8 5 6 8 5 4 7 5 5 13 25 31 43 39
27 27 27 26 26 22 21 23 21 19 19 16 14 12 11 14 5 11 6 5 2 2 6 12 10 4 1 3 4 4 5 9 4 8 6 4 7 8 12 11 3 25 38 43 41
30 29 29 26 23 20 23 24 22 19 16 13 12 9 11 8 12 13 15 7 3 4 4 10 9 5 3 2 9 4 3 10 8 12 22 9 10 9 23 24 17 19 32 43 47
31 31 29 26 20 21 23 20 20 20 17 14 11 6 9 9 4 2 18 18 10 5 5 8 6 12 4 3 5 6 10 9 8 11 13 2 7 10 19 15 7 30 40 46 49
33 31 28 23 18 21 17 19 23 22 14 11 6 4 13 21 7 9 12 10 11 9 7 8 11 6 3 4 5 8 7 8 6 4 6 8 8 20 34 18 21 34 48 37 37
34 30 23 19 21 16 18 17 19 18 10 6 1 5 9 6 8 7 9 16 11 11 8 5 5 12 6 7 7 4 2 4 3 10 8 9 18 6 23 14 22 39 40 31 30
33 24 19 20 19 19 18 19 18 14 5 2 2 5 10 7 8 13 8 5 12 8 6 4 6 7 4 2 4 3 3 6 3 10 7 14 7 8 25 14 18 33 34 35 30
29 19 19 19 18 20 16 18 16 8 2 3 1 3 5 2 11 13 3 2 8 7 3 1 2 3 2 3 5 5 3 3 8 6 17 7 9 9 8 17 21 30 29 35 33
22 18 17 18 18 19 19 15 13 3 9 9 7 9 16 14 14 4 5 7 7 3 3 2 1 4 4 4 3 10 10 7 7 6 5 14 1 13 11 5 14 25 27 34 37
19 20 17 18 17 17 17 8 7 8 9 10 10 20 18 13 7 8 5 6 4 4 2 3 4 4 4 4 6 8 8 12 13 14 6 4 14 11 6 5 22 25 26 32 36
16 22 20 20 19 16 15 9 9 11 3 9 6 5 6 10 6 11 10 10 5 5 5 6 5 6 10 6 7 8 10 9 8 12 6 4 1 5 6 6 17 30 39 36 41
14 21 22 23 20 24 13 17 16 6 3 6 3 3 6 3 6 13 13 11 3 8 4 5 6 12 8 12 9 10 7 13 11 6 4 8 4 7 6 7 7 15 25 36 40
14 22 21 23 26 24 23 20 13 1 3 9 2 4 24 8 5 4 16 19 7 6 5 6 2 4 11 15 10 6 4 8 8 9 6 4 3 11 8 6 7 8 26 37 42
14 15 20 23 25 26 25 23 6 4 5 7 4 16 12 14 10 8 4 7 10 5 1 6 4 3 3 9 11 3 4 8 6 2 3 8 8 4 7 12 5 7 26 32 41
14 12 16 21 21 24 25 15 4 5 6 10 12 13 14 5 6 5 8 10 5 3 5 3 7 5 6 2 3 7 4 5 5 5 5 7 5 7 17 12 9 10 28 31 45
14 10 14 16 15 22 19 5 7 8 6 9 10 17 4 7 2 7 3 4 7 10 2 2 6 11 10 11 6 4 8 3 4 6 4 5 8 5 11 14 25 26 38 39 40
12 10 15 15 12 21 13 5 3 5 8 8 13 5 3 2 2 3 4 4 8 12 5 2 5 2 21 9 9 7 5 5 4 5 3 5 4 3 11 10 9 19 33 34 33
12 1 18 15 11 18 5 1 4 3 8 1 3 3 5 6 4 3 3 4 5 9 11 3 4 7 10 9 3 5 6 7 4 6 6 3 3 8 10 13 10 10 17 27 32
11 0 14 17 11 12 2 4 5 12 6 3 2 4 6 4 4 5 5 4 6 10 15 5 2 2 7 6 9 3 2 9 3 3 5 4 4 6 12 10 14 11 24 35 37
11 2 10 15 9 3 3 6 10 7 3 2 0 4 4 5 4 4 4 4 10 8 8 5 3 2 2 4 7 3 4 6 1 2 0 4 3 4 11 11 18 22 28 29 38
17 6 8 15 3 4 8 6 5 5 5 2 3 8 6 4 5 5 4 3 10 7 6 6 1 2 1 1 6 3 10 12 4 2 3 6 4 4 7 12 28 31 30 34 40
10 4 7 7 4 1 5 6 8 16 5 6 4 4 7 3 5 6 4 2 6 3 6 7 4 6 4 2 8 4 17 10 5 1 2 2 2 5 14 20 21 35 37 36 37
12 2 3 4 5 7 3 4 6 7 5 10 4 11 11 3 3 4 5 2 2 5 3 3 4 4 5 7 8 9 15 3 6 6 3 7 5 8 16 23 26 37 40 40 37
8 6 7 9 13 7 5 5 6 9 4 9 6 16 12 4 5 14 16 3 3 2 3 0 3 2 2 3 7 9 11 9 5 5 8 15 11 12 20 30 34 37 40 39 37
13 7 5 6 6 4 2 4 9 12 11 15 15 12 10 8 23 28 22 11 7 1 2 2 0 1 4 4 8 8 9 4 4 6 13 13 9 18 17 19 31 33 37 41 40

GFSSW_850_spd_162.txt.gz
Wind_Speed
24 23 22 23 22 23 21 21 20 20 18 18 17 18 17 18 18 21 24 10 6 9 12 10 9 8 11 10 9 7 1 3 3 5 4 2 6 8 7 17 10 12 11 8 12
25 25 24 24 24 21 20 20 22 21 19 18 16 16 17 18 22 17 2 5 4 8 14 12 10 6 7 7 9 5 4 8 7 6 3 2 2 5 2 2 8 14 14 12 13
27 27 27 26 24 20 19 22 24 21 21 19 14 14 14 17 19 5 7 4 2 4 7 8 9 3 4 3 6 3 5 6 4 3 2 3 6 6 5 3 9 15 18 20 18
31 29 28 26 23 19 21 23 20 20 19 18 12 10 11 13 2 10 9 2 3 3 5 7 7 6 3 4 2 1 3 4 2 1 2 2 7 9 7 9 10 9 20 22 22
33 31 28 24 20 20 20 20 20 21 20 17 13 7 9 7 8 10 15 6 1 1 1 8 10 6 5 3 1 4 2 1 2 8 11 9 10 9 19 25 15 9 15 24 30
33 29 24 21 20 19 20 21 20 20 19 14 10 3 6 6 2 3 15 16 7 3 3 5 5 8 3 2 3 1 0 4 2 9 10 3 5 4 12 21 23 18 24 30 35
29 24 21 19 19 20 21 20 22 19 20 12 5 2 10 13 4 7 11 11 17 10 8 6 6 4 5 2 2 4 1 2 6 7 6 2 10 23 28 20 15 10 20 32 35
24 20 20 18 19 21 21 22 23 22 10 7 3 3 8 4 4 9 11 9 13 14 11 6 7 7 3 2 4 3 2 3 4 10 7 8 23 7 26 21 31 30 15 26 32
19 20 18 18 20 21 22 22 21 16 8 6 3 3 7 5 6 12 15 7 11 9 8 5 3 4 2 3 4 6 1 3 4 12 7 16 2 7 19 18 27 31 19 29 32
19 18 18 19 20 21 21 20 17 8 6 4 3 3 2 4 11 14 7 1 5 7 4 5 3 3 3 4 1 2 3 4 5 7 13 11 12 11 3 19 24 27 17 30 35
19 17 18 21 23 18 20 17 12 4 9 6 10 6 10 11 12 5 5 6 5 2 2 3 4 3 6 5 4 1 2 3 7 8 3 15 7 12 24 7 13 22 24 29 32
19 17 19 21 25 17 17 12 11 7 9 6 5 11 11 10 6 4 3 3 1 3 2 4 3 5 5 4 3 2 3 5 10 11 6 8 10 15 7 6 15 23 25 34 31
13 19 20 23 24 20 16 11 14 8 2 7 4 3 5 6 4 8 8 6 3 2 3 5 5 5 5 4 4 4 5 4 5 10 7 4 5 5 8 9 12 19 32 39 40
15 16 18 23 24 25 14 15 15 2 3 5 2 2 1 6 5 8 10 9 3 9 4 4 5 5 5 3 6 2 4 6 8 5 3 4 4 6 8 9 10 16 26 33 38
14 13 17 21 23 23 22 16 10 1 4 13 2 3 15 0 11 3 7 16 8 6 6 6 5 4 5 5 7 4 6 7 7 6 5 4 1 5 11 6 8 13 26 39 43
14 10 15 20 21 25 23 19 4 5 5 7 4 12 11 10 3 6 5 5 10 4 1 3 1 5 6 6 10 4 4 5 2 2 4 8 5 3 9 14 8 19 28 40 41
11 8 13 18 20 23 24 9 5 5 6 9 9 10 11 4 5 6 4 4 2 4 6 2 7 4 5 2 4 5 3 2 2 4 5 9 2 7 11 8 11 18 30 38 45
7 8 13 17 17 21 21 5 7 3 5 11 10 9 3 5 2 5 5 2 9 1 2 3 5 10 9 7 6 5 7 4 7 6 5 8 7 7 12 11 26 35 37 38 36
7 5 15 16 14 19 13 5 3 3 6 10 11 3 3 1 2 3 4 4 9 12 7 4 4 4 13 7 10 5 6 4 3 4 2 6 7 4 4 8 9 23 30 34 34
12 3 13 19 13 14 6 2 3 4 5 2 5 2 3 5 4 2 2 5 5 13 5 5 3 3 0 4 2 8 8 3 3 4 5 5 4 5 8 16 10 14 23 27 33
13 1 10 16 11 8 3 4 6 16 7 1 3 4 5 5 7 5 4 4 6 9 8 3 3 1 6 5 10 4 4 3 2 3 5 5 5 6 14 21 20 16 25 34 34
13 3 11 17 7 3 2 5 9 8 7 5 2 6 5 4 6 5 4 4 10 10 9 6 3 4 3 5 9 4 5 8 3 2 3 4 5 3 7 10 20 22 30 35 35
18 6 7 12 3 4 7 6 4 4 6 3 3 6 6 3 4 8 6 4 12 8 9 7 2 3 2 3 3 4 5 7 8 4 6 5 5 5 12 14 23 32 33 36 38
11 5 7 8 4 2 4 5 7 10 6 5 6 4 10 4 7 5 5 8 4 6 13 8 4 5 4 3 4 6 9 13 9 4 3 3 5 5 13 20 18 34 38 38 41
11 3 2 5 4 6 3 3 5 5 6 8 4 4 12 6 4 5 6 6 12 16 1 2 4 4 9 3 6 6 12 15 17 20 5 3 6 6 15 22 23 33 37 37 35
8 6 6 8 12 6 3 3 4 4 3 7 4 19 14 6 11 11 14 7 8 2 3 1 3 2 4 2 7 5 13 21 24 21 8 6 6 9 21 28 30 30 36 36 36
13 7 4 6 5 3 3 2 8 9 10 19 12 13 10 11 24 33 22 11 7 4 1 2 2 1 3 6 3 7 15 16 6 5 7 5 7 16 21 21 30 34 37 41 41

GFSSW_850_spd_165.txt.gz
Wind_Speed
24 23 22 21 20 19 17 18 21 21 19 18 16 15 15 16 15 17 20 7 7 8 9 6 5 4 11 5 6 7 7 13 14 14 9 8 12 11 9 23 15 11 11 4 8
27 25 23 21 20 18 17 20 20 18 18 17 17 14 14 14 18 5 2 3 1 5 6 7 4 5 7 6 6 8 9 13 7 8 8 8 10 6 6 11 21 16 10 12 12
28 26 23 20 18 17 19 19 18 17 17 17 17 15 12 14 12 4 4 3 4 2 3 6 7 5 8 4 8 4 9 9 9 8 5 5 5 3 5 11 14 9 13 15 19
27 24 20 19 19 19 18 19 18 18 18 16 16 12 11 10 3 9 8 3 4 1 3 4 5 6 5 9 6 6 7 6 7 3 3 4 5 5 11 11 6 2 6 17 20
24 20 19 18 19 20 21 20 19 21 17 17 12 7 8 5 4 7 11 5 3 4 2 4 6 6 8 5 5 10 5 7 14 8 7 8 14 9 18 22 18 12 3 12 15
21 20 18 18 20 21 22 22 21 20 22 15 9 4 5 5 2 3 5 12 7 2 1 3 2 4 4 2 9 2 5 10 7 12 7 6 13 8 21 14 12 11 8 13 15
20 21 18 18 20 22 23 25 22 21 15 8 4 4 6 5 4 6 9 7 11 13 4 2 2 2 3 2 3 4 5 5 14 11 8 8 19 24 28 25 25 17 9 7 16
22 19 18 19 21 22 23 27 23 16 11 8 5 3 4 4 4 7 12 6 8 13 10 5 4 2 4 1 1 5 6 10 8 14 13 9 28 16 25 26 29 23 15 5 14
21 19 19 20 22 21 23 27 20 10 9 8 5 3 4 5 6 11 13 6 5 7 9 4 1 2 4 2 3 2 4 12 9 14 10 23 10 14 21 13 25 22 15 8 15
19 18 18 21 24 21 22 25 19 8 11 4 7 3 3 6 11 11 7 3 5 7 4 3 2 3 3 3 4 5 7 6 8 11 18 16 22 17 3 16 18 13 15 14 20
15 18 17 21 25 21 21 18 12 4 9 4 7 5 8 14 8 2 2 6 7 5 4 3 4 7 7 7 4 4 4 6 8 6 5 16 16 21 28 18 17 11 16 16 21
19 15 16 20 23 21 19 10 8 7 7 4 6 6 5 10 6 3 5 4 4 5 4 4 7 6 6 6 6 6 8 9 11 13 6 12 14 14 19 21 22 20 13 20 23
21 12 15 19 21 22 18 12 13 6 2 5 5 3 3 11 7 10 6 4 5 5 6 6 3 4 11 8 8 8 9 7 8 8 10 10 15 16 13 23 23 12 17 24 29
21 10 13 19 19 23 17 16 11 2 1 8 3 1 2 12 4 11 8 8 5 9 6 6 3 7 5 6 7 11 8 10 9 5 6 4 5 16 17 16 19 17 20 24 26
18 9 12 17 20 21 21 17 5 2 2 16 2 5 15 4 14 2 3 4 12 8 6 2 5 6 7 10 11 6 6 6 8 7 7 8 5 13 16 16 17 19 25 27 29
16 7 12 16 19 22 21 15 2 1 5 8 8 11 13 4 2 5 1 3 9 11 6 8 2 5 6 5 11 6 8 6 5 5 8 14 11 13 14 23 21 22 27 30 31
11 6 13 16 18 20 22 8 2 5 8 10 13 12 12 5 4 2 5 2 4 5 10 9 15 8 10 9 9 13 9 5 5 6 8 15 10 16 18 21 23 24 31 33 34
9 4 13 18 17 19 17 2 7 5 8 14 12 17 5 3 2 4 4 3 5 2 1 9 4 13 11 16 9 18 9 3 7 7 12 10 11 12 18 16 26 29 31 35 33
13 4 11 18 17 17 6 5 2 5 10 12 16 4 4 3 3 4 4 4 6 12 6 6 5 3 8 11 14 13 11 1 3 4 5 10 15 9 8 15 17 25 28 33 33
16 2 8 16 16 11 4 1 3 3 11 7 4 3 4 7 7 3 3 4 4 14 12 2 4 1 4 11 13 9 9 6 3 7 8 14 20 11 13 19 18 22 29 30 29
15 1 9 17 11 7 2 3 5 12 10 4 6 4 6 4 7 6 4 5 7 10 15 2 3 2 6 13 16 8 11 7 4 5 9 9 16 18 13 20 23 25 33 35 34
13 1 13 13 5 3 2 6 6 7 5 5 3 5 4 4 5 6 5 5 7 12 9 10 3 7 12 2 8 18 15 16 8 13 5 5 11 4 16 22 23 28 31 33 35
16 6 8 8 3 4 7 5 5 4 8 4 6 5 7 4 5 7 9 9 5 11 5 6 6 5 4 4 10 16 18 17 6 2 10 4 6 3 7 17 25 30 31 33 36
10 4 6 7 5 2 5 4 6 8 7 5 9 9 12 12 11 5 5 4 12 7 6 5 5 10 6 5 4 9 19 15 14 7 6 10 5 6 14 17 21 33 33 39 41
11 4 3 5 2 8 4 4 6 7 5 7 5 10 19 6 10 6 6 5 12 11 6 5 8 11 13 9 8 13 19 17 17 21 7 2 14 7 17 23 27 34 37 39 38
8 6 5 9 10 8 0 2 5 10 4 7 6 22 20 10 12 16 8 5 7 3 7 6 5 6 11 10 2 8 17 20 21 20 24 22 25 13 10 26 27 29 34 34 35
13 9 3 6 4 4 2 3 9 14 10 19 20 18 17 16 29 32 22 10 7 4 2 2 3 3 2 1 7 6 18 22 15 20 19 19 18 14 17 22 30 31 32 38 41

GFSSW_850_spd_168.txt.gz
Wind_Speed
20 18 16 15 16 15 15 16 16 15 14 15 15 15 13 11 9 14 11 8 6 8 4 4 3 8 11 13 14 16 13 19 27 22 19 14 19 23 20 20 14 14 8 2 15
19 18 16 16 15 16 16 17 17 16 17 17 14 14 13 12 13 7 3 2 3 3 1 3 6 8 15 15 14 15 16 24 17 20 16 16 19 24 20 23 22 24 7 9 15
19 18 18 17 18 18 20 20 19 17 19 17 17 14 13 11 7 3 3 3 6 3 3 4 5 8 15 15 20 17 21 18 17 13 17 16 15 16 17 19 26 24 21 15 16
20 19 17 18 19 20 21 21 20 20 18 17 17 13 10 5 4 3 3 2 5 2 3 4 7 11 11 17 20 17 17 23 12 20 15 17 16 16 20 15 11 4 4 16 18
21 18 17 18 20 22 22 24 22 20 19 17 11 8 7 4 2 4 6 3 3 1 3 4 7 8 11 11 17 16 20 17 21 11 16 14 15 18 20 21 9 2 1 14 16
20 18 17 18 20 22 24 25 24 19 15 11 8 6 3 1 0 2 3 5 5 2 2 3 3 6 6 11 13 9 22 17 23 20 19 17 20 22 20 22 15 9 9 11 17
19 17 17 17 19 21 24 27 23 16 12 11 7 3 1 4 3 2 6 4 8 9 5 4 1 6 3 7 17 10 12 16 21 19 17 16 21 28 26 16 14 10 7 5 15
19 17 17 18 20 21 22 27 20 10 11 10 8 3 1 2 1 5 6 5 5 9 9 5 2 4 8 3 9 15 15 16 18 21 21 18 23 22 28 26 24 19 12 8 8
18 17 17 18 21 20 21 24 19 7 11 6 6 1 5 5 4 5 5 5 3 4 10 3 5 8 7 11 9 11 13 20 18 18 21 21 12 24 20 25 22 23 19 13 10
24 15 15 17 20 20 21 19 17 6 9 5 6 3 2 8 8 8 3 2 3 8 8 9 9 10 10 8 9 9 13 7 16 16 20 23 23 16 11 21 24 19 20 17 13
26 15 14 16 20 19 21 15 9 1 2 3 5 3 5 10 4 2 2 3 4 9 10 8 9 11 9 7 7 6 7 8 8 2 11 19 22 21 25 11 16 19 17 17 19
28 13 13 16 18 18 16 9 7 6 5 3 4 6 5 6 9 2 5 7 7 9 5 7 11 8 6 8 9 10 11 10 9 13 10 13 19 19 19 22 22 17 18 18 19
28 11 11 16 14 17 10 8 6 2 5 1 3 4 4 6 14 3 5 6 9 5 10 14 2 1 10 10 11 11 11 7 9 4 9 12 16 18 22 23 26 22 17 18 24
28 10 10 17 11 17 9 15 5 2 4 5 1 1 3 15 4 8 7 8 6 9 11 9 8 7 8 11 9 12 7 10 10 9 12 15 7 24 22 23 21 26 20 21 27
26 8 11 14 15 12 17 14 1 0 3 8 5 4 13 14 13 3 0 7 12 10 8 3 6 8 11 9 8 9 4 8 10 10 12 11 7 14 24 22 23 22 25 23 27
21 8 12 15 15 19 20 10 1 4 4 7 9 17 17 15 5 6 3 3 9 10 16 18 5 8 9 4 7 4 8 9 9 9 12 16 14 12 18 27 25 25 28 26 27
19 6 12 15 12 17 19 3 3 4 12 7 16 19 19 10 10 4 8 7 5 5 12 18 18 13 11 11 7 12 10 7 7 8 12 18 12 19 18 24 26 26 31 30 29
18 5 9 17 19 17 9 5 3 7 8 15 14 16 8 11 7 7 7 10 6 8 9 6 8 21 15 18 11 16 13 6 8 12 13 8 13 12 19 13 30 31 31 30 31
18 4 5 18 19 15 8 4 5 9 13 13 16 5 10 11 5 9 10 11 2 13 7 3 4 7 6 13 18 13 16 11 9 16 9 14 17 13 18 18 18 29 32 32 31
18 3 5 20 16 8 4 3 5 6 12 10 7 2 9 11 5 12 9 4 3 11 13 2 5 8 7 11 14 13 12 10 8 8 14 13 20 12 20 16 22 27 29 35 35
14 3 9 17 9 7 3 5 7 9 10 5 12 8 10 5 8 6 6 5 6 8 11 6 6 6 5 14 16 10 12 13 12 13 11 16 15 17 14 19 24 25 34 38 38
10 3 13 13 3 4 4 8 6 9 8 8 8 10 9 12 5 7 6 7 9 5 7 12 6 10 13 11 14 18 19 20 10 16 15 15 11 18 17 16 25 28 36 41 41
14 5 9 10 4 6 10 5 5 10 11 5 7 8 17 6 7 7 7 7 8 5 2 7 7 7 3 0 9 14 22 19 19 12 15 14 9 6 21 13 30 32 37 41 44
10 5 5 6 4 7 9 6 8 11 14 7 14 14 14 20 16 6 4 5 8 6 11 4 9 12 11 4 4 24 22 22 20 16 17 19 3 10 12 17 25 31 41 40 40
11 5 3 6 5 12 9 6 13 12 6 13 7 14 21 12 17 4 5 4 13 12 6 7 8 16 20 18 14 14 26 27 24 25 16 21 4 10 16 15 23 37 35 37 36
10 8 7 18 11 12 3 7 11 15 8 9 11 20 20 17 10 22 16 5 6 10 12 8 6 13 18 2 6 12 20 25 24 22 25 23 20 14 14 20 27 26 37 41 40
11 9 5 7 8 7 6 9 14 17 11 12 16 19 18 21 32 25 15 8 8 4 4 5 5 5 5 8 8 6 19 20 21 23 23 24 19 7 12 13 22 25 31 40 40

GFSSW_850_spd_171.txt.gz
Wind_Speed
17 17 17 16 17 18 18 19 18 16 15 17 16 13 12 8 7 13 12 11 11 12 4 6 7 8 13 19 22 22 17 21 27 26 23 24 21 20 25 26 26 18 14 18 17
19 18 17 18 19 19 20 20 20 19 19 17 16 14 11 10 10 8 9 8 3 2 3 6 7 8 16 17 23 19 16 27 25 21 24 28 19 19 24 25 27 15 12 14 15
20 18 18 19 20 21 21 22 23 20 20 19 18 16 9 7 11 4 4 1 4 3 5 7 9 10 16 20 24 24 22 21 27 30 27 20 25 18 23 21 25 24 18 17 16
19 18 17 18 20 22 23 24 25 22 20 18 14 7 5 4 3 3 3 2 5 4 5 6 9 14 15 17 21 24 28 25 32 27 22 19 19 20 26 29 21 29 23 24 19
19 18 17 17 20 22 23 25 27 22 17 13 9 5 5 4 3 5 3 6 4 3 7 8 10 11 16 16 18 20 23 27 25 25 21 22 20 23 23 17 9 8 9 18 18
18 17 16 16 19 22 23 24 25 19 14 11 7 5 4 0 2 2 2 5 6 7 8 8 10 11 16 16 16 19 24 18 25 27 27 16 22 25 22 24 18 11 9 14 20
20 16 16 16 18 20 22 24 23 13 10 10 6 8 2 5 0 3 5 6 6 10 10 9 9 10 8 13 19 17 20 16 27 24 27 24 21 26 29 25 21 15 15 18 19
24 17 15 15 17 19 21 24 19 7 8 8 4 1 2 1 3 4 6 7 8 9 12 8 8 14 15 17 8 14 18 18 23 25 25 24 26 25 30 29 30 24 17 15 15
30 19 12 14 16 18 21 17 16 6 7 5 9 4 4 5 4 6 5 6 5 4 10 8 10 15 14 13 15 18 16 23 25 28 27 26 22 23 32 31 25 26 22 18 13
33 19 11 14 16 17 21 16 13 7 6 5 7 7 4 7 11 8 5 4 5 3 8 11 14 14 13 13 15 10 21 19 23 23 27 30 24 23 30 37 30 27 29 23 20
33 17 11 14 17 15 15 15 9 4 8 6 5 6 5 11 5 2 4 4 5 7 12 8 11 14 16 12 23 12 15 13 12 17 22 22 25 25 16 25 25 31 24 24 22
33 15 11 15 16 15 10 13 11 8 9 7 4 6 6 8 11 4 3 8 7 12 6 7 12 15 8 10 15 13 13 16 14 10 7 15 23 26 25 20 23 27 29 30 24
31 13 11 15 11 14 7 13 9 5 8 9 3 5 5 9 10 7 5 10 12 13 10 12 12 7 7 13 12 14 17 16 17 11 16 15 18 22 26 25 28 24 30 26 26
29 10 10 14 9 12 11 14 9 3 4 5 5 2 6 12 2 8 11 11 13 14 11 12 16 13 9 9 17 15 15 13 14 11 13 20 12 23 25 25 24 28 25 29 28
28 9 10 12 10 14 14 12 4 1 3 7 2 5 10 10 12 4 5 8 16 13 11 12 8 8 12 13 11 14 7 11 15 15 16 17 12 17 28 25 26 25 31 26 30
25 9 10 12 8 15 13 9 2 6 5 8 12 17 14 7 2 5 6 8 13 13 16 20 17 11 11 9 6 12 11 14 14 14 13 19 13 18 25 29 27 27 36 32 32
23 9 8 9 13 14 10 7 6 4 15 10 20 17 13 12 10 3 9 12 7 7 13 15 19 18 13 14 12 11 15 10 10 11 13 19 13 21 22 27 30 29 37 37 34
23 7 8 7 14 13 8 10 5 12 12 18 16 16 7 9 11 16 15 15 14 12 12 13 8 18 15 19 14 11 15 9 6 10 13 17 16 16 18 11 34 36 39 37 37
17 7 4 14 14 10 13 4 6 10 14 16 17 11 12 9 7 10 19 17 12 11 8 7 5 1 11 16 19 16 15 14 8 16 11 12 11 17 15 14 24 30 39 36 37
16 5 4 15 11 7 6 3 8 7 13 12 15 8 17 19 11 16 13 7 9 6 12 9 8 6 11 8 17 16 10 10 8 10 13 14 21 11 18 15 14 25 31 38 36
13 9 6 15 10 10 5 7 12 13 11 9 15 17 18 15 13 15 6 14 10 10 11 12 9 7 9 11 15 12 15 15 14 12 10 12 12 15 16 19 19 23 37 40 36
12 6 10 15 12 10 5 9 8 12 15 13 10 16 16 18 18 7 7 4 10 11 5 10 7 11 17 12 15 10 16 18 11 17 13 16 15 5 18 20 18 24 38 41 40
14 11 6 15 6 8 13 14 7 11 13 14 11 15 18 18 9 8 7 4 7 4 6 4 7 8 12 6 7 14 17 19 19 17 19 14 16 15 17 15 24 31 40 42 39
13 6 10 9 4 12 14 11 12 11 14 12 17 17 16 18 16 10 11 5 11 11 16 6 11 13 13 8 5 15 24 24 23 16 19 19 23 13 14 14 22 35 39 42 36
11 7 6 7 13 15 14 14 16 15 11 18 10 16 20 19 15 3 7 5 11 16 7 6 7 16 21 24 14 18 24 31 28 25 24 24 20 17 22 24 11 38 43 44 38
12 9 13 20 13 14 5 12 14 17 18 17 15 20 21 18 17 25 13 1 6 5 9 5 4 13 22 21 21 14 20 29 31 27 27 29 13 5 35 42 23 26 45 42 42
14 11 11 14 12 12 9 13 19 19 12 13 18 19 20 22 28 25 4 9 10 7 11 6 5 4 7 6 8 10 19 27 27 30 28 25 19 13 29 22 8 40 42 43 43

GFSSW_850_spd_174.txt.gz
Wind_Speed
18 17 16 16 17 18 20 21 21 20 17 17 15 12 9 10 9 9 16 11 14 19 12 6 8 8 10 16 20 23 16 18 26 25 20 27 24 29 30 23 19 21 24 27 26
19 18 18 18 19 20 22 22 24 23 21 18 16 13 11 9 9 11 9 12 10 6 2 9 10 7 11 13 20 18 16 25 23 23 23 25 27 32 22 17 23 28 24 24 23
19 18 18 19 20 21 22 23 25 25 20 18 15 10 6 6 11 4 5 5 6 6 6 10 10 12 15 16 19 22 21 22 23 31 33 30 26 34 19 18 27 29 25 22 22
19 18 17 18 20 21 22 24 26 25 18 15 11 6 5 5 4 2 10 12 4 11 7 10 10 12 14 15 18 19 25 29 27 32 31 25 29 30 31 18 28 33 29 27 25
23 18 16 17 19 21 23 24 26 22 14 13 9 5 1 6 5 9 7 6 5 7 8 10 12 14 15 15 19 19 19 25 28 32 30 32 24 29 27 20 27 26 27 32 26
29 22 16 15 17 20 23 25 23 16 12 12 7 5 6 8 4 3 4 6 7 7 9 11 12 15 15 19 16 22 20 19 21 28 29 26 23 28 23 19 29 11 8 29 28
31 24 15 14 16 19 22 23 21 10 11 10 3 6 9 5 4 5 7 8 8 8 12 10 12 12 15 16 20 21 18 16 21 23 22 24 24 25 27 27 24 14 11 17 30
33 25 16 14 16 19 21 18 17 10 11 8 4 6 5 3 6 4 7 10 7 9 11 12 11 13 18 20 23 20 15 16 20 19 23 28 26 24 28 29 30 26 19 21 20
34 23 14 14 16 18 21 15 14 10 7 2 8 5 2 7 5 10 7 9 9 7 6 9 10 15 17 15 14 16 16 20 21 18 20 27 28 27 31 31 30 28 19 23 17
35 20 13 13 17 16 15 14 13 5 7 6 9 8 8 8 14 9 6 7 8 7 8 9 12 12 13 13 14 13 14 18 20 17 21 27 28 25 33 34 32 33 29 23 23
35 19 13 14 17 15 13 11 14 3 7 13 8 7 9 10 6 5 5 7 8 10 11 14 10 11 14 12 20 21 14 21 20 23 22 26 26 27 27 30 29 34 31 28 27
35 18 12 14 13 11 11 11 15 12 14 8 7 10 6 7 14 7 3 8 12 13 13 8 11 15 10 7 22 15 11 24 20 11 14 19 27 29 26 25 31 33 26 27 27
35 16 12 15 11 11 8 16 14 8 7 8 8 6 7 8 13 11 8 11 14 15 16 15 14 8 12 11 13 16 18 17 17 14 19 25 21 24 28 29 27 39 34 34 30
35 15 12 14 11 11 15 16 10 5 4 7 10 3 11 6 5 8 9 14 13 17 18 14 14 14 10 17 8 14 17 20 17 4 7 16 12 20 24 22 21 22 27 33 31
34 15 11 11 13 13 18 14 6 2 2 7 4 6 15 7 9 1 8 9 13 15 16 19 12 15 15 17 8 14 12 17 17 13 15 18 15 18 21 26 24 22 26 33 39
34 15 9 10 15 15 16 12 7 5 4 9 20 18 15 10 11 10 8 10 19 18 16 19 25 16 17 3 10 10 10 20 12 13 14 21 18 19 20 26 24 23 31 36 34
32 13 10 7 14 17 14 11 6 2 17 13 23 20 19 8 12 9 11 13 6 6 14 14 17 21 22 18 13 12 7 9 10 11 14 23 20 18 26 31 27 25 32 29 33
27 10 6 5 18 14 10 10 8 15 14 19 18 21 12 6 13 16 13 19 15 11 3 10 11 10 13 19 15 14 14 10 8 5 11 22 20 18 13 30 37 39 35 34 33
21 7 5 9 12 10 13 7 6 12 14 16 19 13 16 18 15 14 17 13 14 8 7 11 3 15 13 13 11 13 17 4 4 18 16 13 22 19 13 13 26 27 36 38 40
14 3 3 15 11 9 9 8 13 10 12 14 15 14 20 19 18 19 12 8 18 12 17 10 15 11 6 9 13 16 2 8 8 5 8 10 17 12 14 14 18 26 30 39 42
13 10 1 21 11 14 6 10 15 15 13 10 19 17 19 17 18 21 7 14 4 12 13 10 8 10 7 12 11 10 15 13 14 12 13 9 8 10 15 10 9 24 34 38 42
14 7 10 18 7 10 9 17 18 12 15 14 12 13 17 19 20 13 8 7 12 10 6 5 5 9 14 17 13 15 15 14 9 16 13 11 13 15 7 15 11 14 33 39 37
14 21 12 14 8 8 15 15 12 14 13 15 11 15 19 17 8 8 10 8 10 4 4 4 6 8 10 10 11 15 14 15 14 13 20 15 13 10 15 7 16 14 25 39 38
10 7 19 21 19 15 16 15 18 16 13 16 17 15 16 18 18 12 19 2 9 15 15 7 6 12 10 6 5 8 15 15 16 13 18 22 22 15 13 16 21 26 17 39 28
11 9 12 8 15 18 21 16 20 19 19 21 17 15 18 19 19 8 18 5 8 8 7 4 6 15 21 21 18 14 21 22 18 21 20 28 22 15 12 13 18 31 36 28 49
11 12 14 27 20 22 16 16 19 19 20 16 14 19 19 19 16 24 19 3 5 7 9 5 5 9 20 20 21 23 17 27 24 29 28 31 26 4 10 17 20 29 38 22 44
13 16 12 13 16 14 14 19 23 24 15 24 19 18 18 19 27 25 29 17 10 8 10 5 4 5 11 13 17 12 25 27 28 29 30 27 24 12 10 12 17 29 36 26 45